Temp
-2 -2 -2 -2 -3 -3 -3 -3 -3 -3 -3 -3 -3 -4 -4 -4 -5 -5 -5 -5 -6 -6 -6 -6 -6 -6 -6 -6 -6 -6 -6 -6 -6 -6 -6 -7 -7 -7 -7 -8 -8 -8 -7 -6 -7 -7 -7 -7 -7 -6 -6 -5 -5 -5 -5 -4 -4 -4 -3 -3 -3 -3 -2
-2 -2 -3 -3 -3 -3 -3 -3 -3 -3 -4 -3 -4 -4 -4 -4 -5 -5 -5 -6 -6 -6 -6 -6 -6 -6 -6 -6 -6 -6 -6 -6 -6 -7 -6 -7 -7 -7 -7 -8 -8 -8 -8 -7 -7 -7 -8 -7 -7 -7 -7 -6 -6 -6 -6 -5 -5 -5 -4 -4 -4 -4 -3
-2 -2 -3 -3 -3 -3 -3 -3 -3 -3 -3 -3 -4 -4 -4 -4 -5 -5 -5 -5 -6 -6 -6 -6 -6 -6 -6 -7 -7 -6 -7 -7 -7 -7 -7 -7 -7 -7 -8 -8 -8 -8 -8 -8 -7 -7 -8 -8 -8 -8 -7 -7 -7 -7 -7 -6 -6 -6 -5 -5 -5 -4 -4
-3 -3 -3 -3 -3 -3 -3 -3 -3 -3 -3 -4 -4 -4 -4 -4 -5 -5 -5 -5 -6 -6 -7 -7 -7 -7 -7 -7 -7 -7 -7 -7 -7 -7 -8 -8 -8 -8 -8 -8 -8 -8 -8 -8 -8 -8 -8 -9 -9 -8 -8 -8 -8 -8 -8 -7 -7 -6 -6 -6 -6 -5 -5
-4 -4 -4 -4 -4 -4 -4 -4 -4 -4 -4 -4 -4 -4 -5 -5 -5 -5 -5 -5 -6 -6 -7 -7 -7 -7 -8 -8 -8 -8 -8 -8 -8 -8 -8 -8 -8 -8 -9 -9 -9 -9 -9 -9 -9 -8 -8 -9 -9 -9 -9 -9 -9 -9 -8 -8 -8 -7 -7 -7 -6 -6 -6
-5 -5 -5 -5 -5 -5 -5 -5 -5 -5 -5 -5 -5 -5 -5 -6 -6 -6 -6 -6 -6 -7 -7 -7 -7 -8 -8 -8 -8 -8 -9 -9 -9 -9 -9 -9 -9 -9 -9 -9 -9 -9 -9 -9 -9 -9 -9 -9 -9 -9 -9 -9 -10 -10 -9 -9 -8 -8 -8 -7 -7 -7 -6
-5 -5 -5 -5 -6 -6 -6 -6 -6 -6 -6 -6 -6 -6 -6 -6 -6 -6 -7 -7 -7 -8 -8 -8 -8 -8 -9 -9 -9 -9 -9 -9 -10 -10 -10 -10 -10 -10 -10 -10 -10 -10 -10 -10 -10 -10 -10 -10 -10 -10 -10 -10 -10 -10 -10 -10 -9 -9 -8 -8 -8 -7 -7
-6 -7 -7 -7 -7 -7 -7 -7 -7 -7 -7 -7 -7 -7 -7 -7 -7 -7 -7 -7 -7 -8 -8 -9 -9 -9 -10 -10 -10 -10 -10 -10 -10 -10 -10 -10 -11 -11 -11 -11 -11 -11 -11 -11 -11 -10 -10 -10 -11 -10 -10 -11 -11 -11 -11 -11 -10 -10 -9 -9 -9 -8 -8
-7 -8 -8 -8 -8 -8 -8 -8 -8 -8 -8 -8 -8 -8 -8 -8 -8 -8 -7 -8 -8 -8 -9 -9 -10 -10 -10 -11 -11 -11 -11 -11 -11 -11 -11 -11 -11 -11 -11 -11 -12 -12 -12 -12 -12 -11 -11 -11 -11 -11 -11 -11 -11 -11 -11 -11 -11 -11 -10 -10 -10 -9 -9
-8 -8 -8 -8 -8 -8 -9 -9 -9 -9 -9 -9 -9 -9 -9 -9 -9 -9 -9 -9 -9 -9 -9 -9 -10 -10 -11 -11 -12 -12 -12 -12 -12 -12 -12 -12 -12 -12 -12 -12 -12 -12 -12 -13 -13 -12 -12 -12 -12 -11 -11 -12 -11 -11 -12 -12 -12 -12 -11 -11 -11 -10 -10
-9 -9 -9 -9 -9 -9 -9 -9 -9 -10 -10 -10 -10 -10 -10 -10 -10 -10 -10 -10 -10 -10 -10 -10 -10 -11 -11 -12 -12 -13 -13 -13 -13 -13 -13 -13 -13 -13 -13 -13 -13 -13 -13 -13 -13 -13 -13 -13 -12 -12 -12 -12 -12 -12 -12 -12 -12 -12 -12 -12 -12 -11 -11
-10 -10 -10 -10 -10 -10 -10 -10 -10 -10 -10 -11 -11 -11 -11 -11 -11 -11 -11 -11 -11 -11 -11 -11 -12 -13 -13 -13 -14 -14 -14 -15 -14 -14 -14 -14 -14 -14 -13 -13 -13 -14 -14 -14 -14 -14 -14 -14 -13 -13 -13 -13 -13 -13 -13 -13 -13 -13 -13 -13 -13 -12 -12
-11 -11 -11 -11 -11 -11 -11 -11 -11 -11 -11 -11 -11 -12 -12 -12 -12 -12 -12 -12 -12 -12 -12 -12 -13 -14 -14 -15 -16 -16 -16 -16 -16 -16 -16 -15 -15 -15 -15 -14 -14 -14 -14 -14 -14 -15 -14 -14 -14 -14 -14 -14 -14 -14 -13 -13 -13 -13 -13 -13 -13 -13 -13
-11 -12 -12 -12 -12 -12 -12 -12 -12 -12 -12 -12 -12 -13 -13 -12 -12 -12 -13 -13 -13 -13 -13 -13 -13 -14 -14 -15 -16 -17 -17 -17 -16 -16 -16 -16 -16 -16 -16 -16 -15 -15 -15 -14 -14 -15 -14 -14 -14 -15 -14 -14 -14 -14 -14 -14 -14 -14 -14 -14 -13 -13 -13
-12 -12 -13 -13 -13 -13 -13 -13 -13 -13 -13 -13 -13 -14 -14 -13 -13 -13 -13 -13 -13 -13 -14 -14 -14 -14 -14 -15 -16 -17 -17 -17 -17 -17 -17 -17 -17 -16 -16 -16 -16 -16 -16 -15 -15 -15 -15 -14 -14 -15 -15 -14 -15 -15 -15 -15 -14 -14 -14 -14 -14 -14 -14
-14 -14 -14 -14 -14 -14 -14 -14 -14 -14 -14 -14 -14 -14 -14 -14 -14 -14 -14 -14 -14 -14 -14 -15 -15 -15 -15 -16 -17 -18 -18 -18 -18 -17 -17 -17 -17 -17 -17 -17 -17 -17 -16 -16 -16 -16 -15 -15 -15 -15 -15 -15 -15 -15 -15 -15 -15 -15 -15 -15 -15 -15 -15
-14 -15 -15 -15 -15 -15 -15 -15 -15 -15 -15 -15 -15 -15 -15 -15 -15 -14 -14 -14 -15 -15 -15 -15 -15 -15 -15 -16 -16 -17 -17 -18 -18 -18 -18 -17 -17 -17 -17 -17 -17 -17 -17 -17 -17 -16 -16 -16 -15 -15 -15 -15 -15 -15 -15 -16 -16 -16 -16 -16 -16 -16 -16
-15 -15 -15 -16 -16 -16 -15 -15 -15 -16 -16 -16 -16 -16 -16 -16 -16 -16 -15 -15 -15 -15 -15 -16 -16 -16 -16 -16 -16 -17 -17 -18 -18 -18 -18 -18 -18 -18 -18 -18 -18 -18 -18 -18 -17 -17 -17 -17 -16 -16 -16 -16 -16 -16 -15 -16 -16 -16 -16 -16 -16 -16 -16
-16 -16 -16 -16 -16 -16 -16 -16 -16 -16 -17 -17 -17 -17 -17 -17 -17 -17 -16 -16 -16 -16 -16 -16 -16 -16 -16 -16 -16 -17 -17 -18 -18 -19 -19 -19 -19 -19 -19 -18 -18 -18 -18 -18 -18 -18 -18 -18 -17 -17 -17 -16 -16 -16 -16 -16 -16 -16 -16 -17 -17 -16 -17
-17 -17 -17 -17 -17 -17 -17 -17 -17 -17 -18 -18 -18 -18 -18 -18 -18 -18 -18 -18 -17 -17 -17 -17 -17 -17 -17 -17 -17 -17 -17 -18 -18 -19 -20 -20 -20 -20 -20 -19 -19 -19 -19 -19 -19 -19 -19 -18 -18 -18 -17 -17 -17 -16 -16 -16 -16 -16 -16 -17 -17 -17 -17
-18 -18 -17 -17 -18 -17 -18 -18 -18 -18 -18 -18 -19 -19 -19 -19 -19 -19 -19 -19 -18 -18 -18 -18 -18 -18 -18 -18 -18 -18 -18 -18 -18 -20 -20 -20 -20 -20 -20 -20 -20 -20 -20 -19 -19 -19 -19 -19 -19 -18 -18 -17 -17 -17 -17 -17 -17 -17 -17 -17 -17 -17 -17
-18 -18 -18 -18 -18 -18 -18 -18 -19 -19 -19 -19 -19 -19 -20 -20 -20 -20 -20 -20 -19 -19 -19 -19 -19 -19 -19 -19 -18 -18 -18 -18 -19 -19 -20 -19 -20 -20 -20 -20 -21 -21 -20 -20 -20 -20 -20 -19 -19 -19 -18 -18 -18 -17 -17 -17 -17 -17 -17 -17 -17 -17 -17
-19 -19 -19 -19 -19 -19 -19 -19 -19 -19 -19 -19 -19 -20 -20 -20 -20 -20 -20 -21 -20 -20 -20 -20 -20 -20 -19 -19 -19 -19 -19 -19 -19 -20 -20 -20 -20 -20 -20 -21 -21 -21 -21 -21 -20 -20 -20 -20 -20 -19 -19 -19 -18 -18 -18 -18 -18 -18 -18 -18 -18 -18 -18
-19 -19 -19 -19 -19 -19 -19 -19 -19 -19 -19 -19 -20 -20 -20 -20 -20 -20 -21 -21 -21 -20 -20 -20 -20 -20 -20 -20 -20 -20 -20 -20 -20 -20 -20 -20 -20 -20 -20 -20 -21 -21 -22 -21 -21 -20 -20 -20 -20 -20 -20 -19 -19 -18 -18 -18 -19 -19 -19 -18 -18 -18 -18
-19 -19 -19 -19 -19 -19 -19 -19 -19 -19 -19 -19 -20 -20 -20 -20 -20 -20 -21 -21 -21 -21 -20 -20 -20 -21 -21 -20 -20 -20 -20 -20 -20 -21 -21 -21 -21 -20 -20 -20 -21 -21 -22 -22 -21 -21 -20 -20 -20 -20 -20 -20 -19 -19 -19 -19 -19 -19 -19 -19 -19 -19 -19
-20 -20 -20 -20 -20 -20 -20 -20 -19 -19 -20 -20 -20 -20 -20 -21 -21 -21 -21 -21 -21 -21 -21 -21 -21 -21 -21 -21 -21 -21 -21 -21 -21 -21 -21 -21 -21 -21 -21 -21 -21 -22 -22 -22 -22 -21 -21 -21 -20 -20 -20 -20 -20 -20 -20 -20 -20 -20 -20 -20 -20 -20 -20
-20 -21 -21 -21 -21 -21 -20 -20 -20 -20 -20 -21 -21 -21 -21 -21 -21 -21 -22 -22 -21 -21 -21 -21 -21 -21 -21 -21 -21 -22 -22 -22 -22 -22 -22 -21 -21 -21 -21 -22 -22 -22 -22 -22 -22 -22 -21 -21 -21 -21 -20 -20 -20 -20 -20 -20 -20 -20 -20 -20 -20 -20 -20
-21 -21 -21 -21 -22 -21 -21 -21 -21 -21 -21 -22 -22 -22 -22 -22 -22 -22 -22 -22 -22 -22 -22 -22 -22 -22 -22 -22 -22 -22 -22 -22 -22 -22 -22 -22 -22 -22 -22 -22 -22 -22 -22 -22 -22 -21 -21 -21 -21 -21 -21 -20 -20 -20 -20 -20 -20 -21 -21 -21 -21 -21 -21
-21 -21 -22 -22 -22 -22 -22 -22 -21 -22 -22 -23 -23 -23 -23 -23 -23 -23 -23 -23 -23 -23 -23 -23 -23 -22 -22 -22 -22 -22 -22 -22 -22 -22 -22 -22 -22 -22 -22 -22 -22 -22 -22 -22 -22 -22 -21 -21 -21 -21 -21 -21 -21 -20 -20 -21 -21 -21 -21 -21 -21 -22 -22
-22 -22 -22 -23 -23 -23 -23 -23 -23 -23 -23 -24 -24 -24 -24 -24 -24 -24 -24 -24 -24 -24 -24 -24 -23 -23 -23 -23 -23 -23 -23 -22 -22 -23 -23 -22 -22 -22 -22 -23 -22 -22 -22 -22 -22 -22 -22 -21 -21 -21 -21 -21 -21 -21 -21 -21 -21 -21 -21 -21 -22 -22 -22
-22 -22 -23 -23 -23 -23 -23 -23 -23 -24 -24 -24 -24 -24 -24 -24 -24 -24 -24 -24 -24 -24 -24 -24 -24 -23 -23 -23 -23 -23 -23 -23 -23 -23 -23 -23 -23 -23 -22 -23 -23 -23 -23 -23 -23 -22 -22 -22 -21 -21 -21 -21 -21 -21 -21 -21 -21 -21 -21 -22 -22 -22 -22
-22 -22 -23 -23 -23 -23 -24 -24 -24 -24 -25 -25 -24 -24 -24 -24 -24 -24 -24 -24 -24 -25 -24 -24 -24 -24 -24 -24 -24 -24 -23 -23 -23 -23 -23 -24 -23 -23 -23 -23 -23 -23 -23 -23 -23 -23 -22 -22 -22 -22 -22 -22 -22 -22 -22 -22 -22 -22 -22 -22 -22 -22 -22
-22 -23 -23 -23 -23 -24 -24 -24 -24 -25 -25 -25 -25 -24 -24 -24 -24 -24 -24 -24 -25 -25 -24 -24 -24 -24 -24 -24 -24 -24 -24 -24 -24 -24 -24 -24 -24 -24 -23 -23 -23 -23 -23 -23 -23 -23 -23 -23 -22 -22 -22 -22 -22 -22 -22 -22 -22 -22 -22 -22 -22 -22 -22
-22 -23 -23 -23 -23 -24 -24 -24 -25 -25 -25 -24 -24 -24 -25 -25 -25 -25 -24 -24 -25 -25 -25 -25 -25 -24 -24 -24 -24 -24 -24 -24 -24 -24 -24 -24 -24 -24 -24 -23 -23 -23 -23 -23 -23 -23 -23 -23 -23 -23 -23 -23 -23 -23 -23 -23 -22 -22 -23 -23 -23 -23 -23
-22 -23 -23 -23 -23 -24 -24 -24 -25 -25 -25 -24 -24 -25 -25 -25 -25 -25 -24 -24 -25 -25 -25 -25 -25 -25 -25 -25 -25 -24 -24 -24 -24 -24 -24 -24 -24 -24 -24 -24 -24 -24 -24 -23 -23 -23 -23 -23 -23 -22 -22 -22 -22 -22 -23 -23 -23 -23 -23 -23 -23 -23 -23
-23 -23 -23 -23 -23 -24 -24 -25 -25 -25 -25 -24 -25 -25 -25 -25 -25 -25 -25 -25 -24 -24 -25 -25 -25 -25 -25 -25 -25 -25 -25 -25 -25 -25 -25 -25 -25 -25 -24 -24 -24 -24 -24 -24 -24 -24 -24 -24 -23 -23 -23 -23 -23 -22 -23 -23 -23 -23 -24 -24 -24 -24 -24
Height
1418 1418 1417 1417 1418 1418 1418 1417 1417 1416 1415 1414 1414 1414 1415 1415 1416 1415 1415 1415 1416 1416 1417 1416 1416 1417 1418 1420 1420 1420 1421 1421 1423 1424 1424 1426 1426 1426 1428 1429 1430 1427 1416 1412 1417 1420 1420 1423 1425 1425 1426 1428 1429 1430 1432 1433 1433 1434 1435 1436 1438 1440 1441
1415 1415 1415 1415 1415 1415 1415 1414 1413 1413 1412 1411 1411 1411 1411 1412 1412 1411 1411 1412 1412 1413 1414 1413 1413 1413 1415 1417 1416 1416 1417 1417 1418 1420 1419 1420 1421 1421 1423 1425 1424 1423 1417 1409 1409 1414 1415 1416 1418 1418 1418 1421 1423 1424 1426 1427 1427 1428 1429 1430 1432 1433 1435
1413 1413 1412 1412 1412 1412 1411 1411 1410 1410 1409 1408 1408 1408 1408 1408 1408 1408 1407 1407 1407 1408 1409 1409 1408 1409 1411 1412 1411 1411 1412 1413 1414 1415 1415 1415 1416 1416 1417 1419 1419 1418 1414 1408 1405 1407 1409 1409 1410 1411 1412 1414 1416 1418 1420 1420 1421 1422 1422 1423 1425 1426 1428
1411 1411 1410 1410 1409 1409 1408 1407 1407 1406 1406 1405 1405 1404 1404 1404 1404 1404 1403 1403 1403 1404 1404 1404 1403 1404 1406 1407 1406 1406 1407 1408 1409 1409 1410 1410 1410 1411 1411 1413 1414 1412 1410 1407 1401 1400 1403 1405 1404 1405 1406 1408 1410 1411 1412 1413 1414 1415 1415 1416 1418 1419 1421
1409 1408 1407 1407 1406 1405 1405 1404 1403 1403 1402 1402 1401 1401 1401 1401 1400 1400 1400 1399 1399 1399 1399 1399 1399 1399 1401 1401 1400 1400 1401 1403 1403 1404 1404 1404 1405 1406 1406 1407 1408 1407 1406 1404 1398 1395 1398 1400 1399 1399 1400 1402 1403 1405 1406 1406 1407 1408 1409 1410 1411 1412 1414
1406 1405 1405 1404 1403 1402 1401 1401 1400 1399 1399 1398 1398 1397 1397 1397 1396 1396 1396 1395 1395 1395 1395 1395 1394 1395 1395 1395 1395 1395 1396 1397 1398 1398 1398 1398 1399 1400 1401 1401 1401 1401 1401 1399 1395 1392 1392 1393 1394 1394 1394 1395 1397 1398 1399 1400 1400 1401 1402 1403 1404 1405 1407
1403 1402 1401 1400 1400 1399 1398 1398 1397 1396 1395 1395 1394 1394 1393 1392 1392 1391 1391 1391 1391 1391 1390 1390 1390 1390 1390 1390 1390 1390 1391 1391 1392 1392 1392 1392 1393 1394 1395 1394 1394 1395 1395 1393 1391 1388 1387 1387 1388 1388 1388 1389 1391 1392 1392 1393 1394 1394 1395 1396 1397 1398 1400
1399 1399 1398 1397 1396 1395 1395 1394 1393 1393 1392 1391 1390 1390 1389 1388 1387 1386 1386 1386 1386 1386 1385 1385 1385 1385 1385 1385 1385 1386 1386 1386 1387 1387 1386 1387 1388 1388 1388 1388 1388 1388 1388 1387 1385 1383 1382 1382 1383 1382 1382 1383 1384 1383 1383 1385 1387 1387 1388 1390 1392 1393 1395
1396 1395 1394 1394 1392 1392 1391 1390 1390 1389 1388 1387 1386 1385 1384 1384 1383 1382 1382 1381 1381 1381 1380 1380 1380 1380 1380 1380 1380 1381 1381 1381 1382 1382 1381 1381 1382 1383 1382 1382 1382 1382 1381 1381 1380 1378 1377 1378 1376 1375 1376 1376 1376 1376 1377 1380 1383 1382 1383 1385 1386 1387 1388
1392 1391 1391 1390 1390 1389 1388 1387 1386 1385 1384 1383 1382 1381 1380 1379 1379 1378 1377 1377 1376 1376 1375 1375 1375 1375 1375 1375 1375 1375 1375 1376 1376 1376 1376 1376 1377 1377 1377 1376 1376 1376 1376 1376 1374 1372 1373 1372 1369 1369 1371 1371 1370 1371 1373 1375 1376 1376 1378 1381 1380 1379 1380
1389 1388 1387 1386 1386 1385 1385 1384 1383 1382 1381 1380 1379 1377 1376 1375 1374 1373 1373 1372 1371 1371 1371 1370 1370 1370 1370 1369 1369 1370 1370 1370 1370 1370 1370 1371 1371 1371 1371 1371 1370 1370 1370 1370 1369 1367 1368 1367 1363 1363 1366 1368 1367 1368 1368 1369 1370 1371 1373 1374 1373 1372 1372
1386 1385 1383 1382 1382 1381 1380 1380 1379 1378 1377 1376 1375 1374 1373 1371 1370 1369 1368 1368 1368 1367 1366 1366 1365 1365 1365 1365 1364 1364 1364 1364 1364 1364 1365 1365 1365 1366 1365 1365 1365 1364 1364 1365 1364 1362 1361 1360 1359 1359 1361 1363 1363 1363 1363 1364 1365 1365 1366 1367 1367 1366 1366
1383 1382 1381 1379 1378 1377 1377 1376 1375 1374 1374 1373 1372 1371 1369 1367 1366 1365 1364 1364 1364 1363 1362 1362 1361 1360 1360 1360 1360 1359 1359 1359 1358 1358 1358 1359 1359 1359 1359 1360 1360 1359 1359 1359 1359 1357 1354 1354 1355 1355 1355 1358 1359 1359 1359 1358 1358 1359 1360 1361 1360 1360 1362
1380 1379 1378 1377 1375 1374 1374 1373 1372 1371 1371 1370 1369 1368 1366 1364 1362 1362 1361 1360 1360 1359 1359 1358 1357 1356 1355 1355 1355 1355 1355 1355 1354 1353 1353 1352 1352 1352 1352 1353 1353 1354 1354 1354 1353 1351 1348 1348 1351 1351 1351 1353 1355 1354 1353 1353 1353 1353 1354 1354 1355 1356 1358
1377 1376 1375 1374 1373 1371 1371 1370 1369 1368 1367 1366 1365 1364 1362 1360 1359 1359 1358 1357 1357 1356 1355 1354 1353 1352 1351 1351 1350 1351 1351 1351 1350 1349 1348 1347 1346 1346 1346 1345 1346 1347 1348 1348 1347 1346 1344 1344 1346 1346 1346 1348 1348 1348 1348 1348 1349 1349 1349 1350 1350 1351 1352
1374 1373 1372 1371 1370 1368 1367 1367 1366 1365 1364 1363 1362 1361 1358 1357 1356 1356 1355 1354 1353 1353 1351 1351 1350 1348 1347 1346 1346 1346 1346 1346 1345 1344 1343 1342 1341 1340 1340 1339 1339 1341 1341 1341 1341 1340 1339 1339 1339 1341 1341 1342 1342 1342 1342 1344 1344 1344 1344 1345 1345 1344 1343
1371 1370 1369 1367 1366 1365 1364 1364 1363 1362 1360 1359 1359 1357 1354 1353 1352 1352 1351 1351 1350 1349 1348 1347 1346 1345 1344 1342 1342 1341 1341 1341 1340 1339 1338 1337 1336 1335 1334 1333 1334 1335 1334 1334 1334 1334 1334 1334 1334 1335 1335 1336 1336 1336 1337 1338 1337 1336 1338 1339 1338 1336 1336
1367 1366 1365 1364 1363 1361 1360 1360 1359 1358 1357 1356 1355 1353 1351 1349 1348 1347 1347 1346 1346 1345 1344 1344 1343 1341 1340 1338 1337 1337 1336 1336 1335 1334 1333 1332 1330 1329 1328 1327 1329 1329 1328 1328 1328 1328 1328 1328 1329 1329 1330 1330 1331 1332 1332 1331 1329 1330 1333 1333 1331 1330 1332
1363 1362 1362 1361 1360 1359 1358 1356 1356 1355 1353 1352 1351 1349 1347 1345 1344 1343 1342 1341 1341 1340 1340 1340 1339 1337 1336 1334 1333 1332 1331 1331 1330 1329 1328 1327 1326 1323 1322 1323 1324 1323 1322 1322 1322 1321 1321 1321 1322 1323 1323 1324 1324 1326 1327 1325 1324 1326 1327 1326 1325 1327 1329
1360 1359 1359 1358 1357 1356 1355 1353 1352 1351 1350 1348 1347 1346 1344 1342 1340 1339 1338 1337 1336 1335 1335 1335 1334 1333 1332 1331 1329 1328 1327 1326 1325 1324 1323 1322 1321 1319 1317 1318 1319 1318 1317 1317 1316 1315 1315 1314 1315 1316 1317 1317 1318 1319 1320 1320 1319 1320 1321 1320 1320 1322 1323
1357 1356 1355 1355 1354 1352 1351 1350 1348 1347 1346 1345 1344 1342 1341 1339 1337 1336 1334 1332 1331 1330 1330 1330 1329 1329 1328 1327 1325 1324 1323 1322 1321 1320 1318 1317 1316 1315 1314 1314 1314 1313 1312 1312 1311 1310 1309 1308 1308 1309 1310 1310 1311 1312 1314 1314 1314 1315 1315 1315 1315 1316 1316
1353 1352 1350 1350 1349 1348 1348 1346 1345 1343 1342 1341 1340 1338 1337 1335 1334 1332 1330 1328 1326 1326 1325 1324 1324 1323 1323 1322 1321 1320 1319 1317 1316 1315 1313 1312 1311 1310 1309 1309 1308 1307 1307 1306 1305 1304 1303 1303 1303 1303 1303 1304 1305 1306 1307 1308 1309 1309 1309 1309 1310 1311 1312
1349 1347 1346 1345 1345 1344 1344 1342 1341 1339 1338 1337 1336 1334 1333 1332 1330 1329 1327 1325 1323 1322 1321 1320 1320 1319 1318 1318 1317 1316 1314 1313 1312 1310 1309 1308 1306 1305 1304 1303 1302 1301 1301 1300 1300 1299 1298 1297 1297 1297 1298 1299 1300 1301 1302 1303 1303 1304 1304 1304 1305 1306 1307
1345 1344 1342 1340 1340 1340 1339 1338 1337 1335 1334 1333 1332 1330 1329 1328 1327 1326 1324 1322 1320 1319 1318 1317 1316 1315 1314 1313 1312 1311 1310 1309 1308 1306 1305 1303 1302 1301 1300 1298 1297 1296 1295 1295 1295 1294 1292 1292 1292 1292 1293 1294 1295 1297 1298 1298 1298 1299 1299 1300 1300 1301 1303
1342 1340 1338 1337 1335 1335 1335 1334 1333 1332 1331 1330 1328 1326 1325 1324 1323 1322 1321 1319 1317 1316 1315 1313 1312 1311 1310 1309 1308 1307 1306 1305 1304 1302 1301 1299 1298 1296 1295 1294 1292 1291 1291 1290 1290 1289 1288 1287 1288 1288 1289 1290 1291 1292 1292 1292 1293 1294 1294 1295 1296 1297 1298
1338 1336 1335 1333 1332 1331 1330 1329 1329 1328 1327 1326 1324 1322 1321 1320 1319 1318 1317 1316 1314 1313 1312 1310 1309 1307 1306 1305 1304 1303 1302 1301 1299 1298 1297 1295 1294 1292 1291 1290 1289 1287 1287 1286 1285 1284 1284 1283 1284 1285 1285 1286 1287 1287 1287 1288 1288 1289 1290 1291 1292 1292 1292
1334 1333 1331 1329 1328 1326 1325 1324 1324 1323 1322 1321 1319 1318 1317 1316 1315 1314 1313 1311 1310 1309 1307 1306 1305 1303 1302 1301 1300 1299 1298 1297 1296 1295 1293 1292 1291 1289 1287 1286 1285 1284 1283 1282 1281 1281 1280 1280 1281 1281 1281 1282 1282 1282 1283 1284 1284 1284 1285 1286 1288 1288 1288
1331 1330 1328 1326 1324 1322 1321 1320 1320 1319 1318 1316 1315 1314 1312 1311 1310 1309 1308 1307 1305 1304 1303 1301 1300 1299 1298 1297 1296 1295 1294 1293 1292 1291 1290 1288 1287 1285 1284 1283 1282 1281 1280 1279 1278 1277 1277 1277 1277 1277 1277 1277 1278 1278 1279 1280 1280 1280 1281 1282 1283 1283 1283
1327 1326 1325 1323 1321 1319 1317 1315 1315 1315 1314 1313 1311 1311 1309 1308 1307 1306 1304 1303 1302 1300 1298 1297 1295 1294 1294 1293 1292 1291 1290 1289 1288 1287 1286 1285 1284 1282 1280 1279 1278 1277 1276 1275 1275 1274 1274 1274 1273 1273 1273 1274 1274 1275 1276 1277 1277 1277 1278 1279 1279 1279 1279
1324 1323 1321 1319 1317 1317 1315 1312 1311 1311 1310 1309 1308 1307 1306 1305 1304 1302 1301 1300 1299 1297 1295 1293 1291 1290 1290 1289 1288 1286 1285 1285 1284 1282 1281 1281 1280 1279 1277 1276 1275 1274 1273 1272 1271 1271 1271 1271 1270 1270 1270 1271 1271 1272 1273 1273 1274 1274 1275 1275 1275 1275 1276
1322 1320 1319 1317 1314 1313 1312 1310 1309 1308 1306 1305 1305 1304 1302 1301 1300 1299 1298 1297 1296 1293 1291 1289 1288 1286 1286 1285 1284 1283 1282 1281 1280 1279 1277 1277 1276 1275 1274 1273 1272 1271 1270 1269 1269 1268 1268 1268 1268 1268 1268 1268 1269 1269 1270 1271 1271 1272 1272 1272 1273 1273 1273
1319 1317 1316 1314 1312 1310 1308 1307 1306 1304 1303 1302 1301 1300 1298 1297 1296 1295 1294 1294 1292 1289 1287 1286 1285 1283 1282 1282 1280 1279 1278 1277 1276 1275 1274 1273 1272 1271 1271 1270 1268 1268 1267 1267 1266 1266 1265 1265 1265 1265 1266 1266 1266 1267 1268 1268 1269 1269 1269 1270 1270 1270 1271
1315 1314 1312 1311 1309 1307 1305 1303 1302 1301 1299 1298 1297 1296 1294 1293 1292 1291 1291 1290 1288 1286 1284 1283 1282 1280 1279 1278 1277 1276 1275 1274 1273 1272 1271 1270 1269 1268 1267 1267 1266 1265 1264 1264 1264 1263 1263 1263 1263 1263 1263 1264 1264 1265 1265 1265 1266 1266 1267 1267 1267 1268 1269
1311 1311 1309 1307 1305 1304 1302 1300 1298 1297 1296 1295 1293 1292 1290 1289 1288 1287 1287 1286 1284 1282 1280 1279 1278 1276 1276 1275 1273 1272 1271 1270 1269 1268 1267 1266 1265 1264 1264 1263 1263 1262 1261 1260 1260 1260 1260 1260 1260 1260 1261 1261 1261 1262 1262 1262 1262 1263 1263 1264 1264 1265 1265
1306 1306 1305 1303 1301 1300 1299 1297 1295 1293 1292 1291 1290 1288 1287 1285 1283 1283 1283 1282 1281 1279 1277 1276 1274 1273 1272 1271 1270 1269 1268 1266 1265 1265 1264 1263 1262 1261 1260 1260 1259 1258 1258 1257 1257 1257 1257 1257 1257 1257 1257 1258 1258 1258 1258 1258 1259 1259 1259 1260 1261 1261 1262
1301 1301 1301 1300 1298 1297 1295 1293 1291 1290 1288 1288 1286 1285 1283 1281 1279 1279 1278 1277 1277 1276 1274 1272 1271 1270 1268 1267 1266 1265 1264 1263 1262 1261 1260 1259 1258 1257 1257 1256 1256 1255 1255 1254 1254 1253 1253 1253 1253 1253 1254 1254 1254 1254 1254 1254 1255 1255 1255 1256 1257 1258 1258
Wind_Speed
17 17 18 18 19 20 20 20 20 19 20 20 21 21 21 20 21 22 23 23 23 23 24 26 27 28 28 27 29 30 30 31 31 32 34 34 36 38 38 39 40 43 53 55 48 45 45 42 41 42 43 43 43 43 41 41 41 41 40 40 40 39 39
14 15 16 17 17 18 19 20 20 20 21 22 23 23 23 23 23 24 25 25 25 25 25 27 29 30 29 28 30 32 31 32 32 32 34 35 35 37 37 37 39 42 48 54 52 47 46 45 43 44 45 44 44 44 42 41 42 41 41 41 41 41 41
16 16 17 18 18 19 19 20 21 21 22 23 24 25 25 26 26 27 28 28 28 27 27 28 30 31 30 29 31 33 32 32 33 33 34 35 35 36 36 36 37 40 44 50 52 48 46 46 44 45 45 43 42 41 41 42 43 42 43 43 42 42 42
18 19 20 20 21 21 21 22 22 23 23 24 25 27 27 28 29 30 31 31 31 31 30 31 32 32 30 30 32 33 33 32 33 33 34 35 35 35 36 35 35 38 41 45 50 49 46 44 45 44 43 41 40 40 41 42 43 43 44 44 44 43 43
20 20 21 22 22 23 23 23 24 24 24 25 26 28 29 30 31 32 32 34 34 33 33 34 34 34 32 32 34 34 34 33 33 34 34 35 35 34 34 35 35 37 39 41 47 49 46 44 45 44 43 41 40 40 40 42 43 43 44 45 45 44 44
20 21 22 22 23 24 24 24 25 25 26 26 27 28 29 30 31 32 33 34 35 35 35 36 36 36 34 34 36 36 35 34 34 34 35 35 35 34 34 35 35 36 38 40 44 47 47 46 45 45 45 44 42 41 41 41 42 43 44 45 46 46 46
21 22 22 23 24 24 25 25 25 26 26 27 28 28 30 31 31 32 33 34 34 35 35 36 36 36 36 36 37 36 36 35 35 35 36 36 35 35 35 36 36 36 37 40 42 45 46 46 45 45 45 45 43 42 42 42 42 44 45 46 46 47 46
21 21 22 23 23 23 24 24 24 25 25 26 27 28 30 31 32 34 34 35 35 35 35 36 36 36 36 36 36 36 36 35 35 35 36 36 35 35 35 36 37 37 38 40 42 44 46 45 45 45 45 44 43 44 45 43 43 45 46 46 46 47 47
21 21 21 22 22 23 23 23 23 23 24 25 26 27 28 30 31 33 34 35 36 36 36 36 36 35 35 34 34 34 34 34 35 35 37 37 35 35 36 37 37 38 39 40 41 44 45 44 45 46 44 44 45 46 45 43 42 44 46 45 46 47 47
21 21 22 22 22 22 22 22 22 22 23 23 24 26 27 28 29 30 32 33 34 35 35 35 36 35 35 34 34 33 32 32 33 33 35 35 34 34 35 36 38 39 39 40 41 44 44 43 46 48 44 43 46 45 43 42 42 43 44 43 45 48 48
22 22 23 23 23 23 23 22 22 22 22 22 23 25 26 27 28 29 30 31 32 33 34 34 34 34 34 34 33 32 32 31 31 31 32 32 32 32 34 35 36 38 39 39 40 43 43 43 47 48 44 42 43 43 42 43 42 42 42 42 45 47 48
23 23 24 24 24 24 23 23 23 23 23 23 23 24 25 26 28 29 30 30 30 31 32 32 32 32 33 32 31 32 32 31 31 31 30 31 31 31 32 33 34 36 38 39 40 42 44 45 46 46 44 41 41 41 42 42 41 41 42 42 44 46 47
22 22 23 24 24 24 24 24 24 24 24 24 24 24 25 27 28 29 30 30 30 31 31 31 31 31 31 29 29 30 30 30 31 31 31 31 30 31 32 32 32 34 35 37 39 43 46 46 45 44 44 41 39 39 40 41 42 42 42 42 44 45 45
22 22 22 23 23 24 23 23 23 23 23 24 24 24 26 28 30 30 30 31 31 31 30 30 30 31 31 29 28 28 28 28 29 30 30 31 31 32 32 31 32 32 32 33 36 41 45 46 44 44 45 42 40 40 41 41 42 42 42 42 43 43 42
23 22 22 22 23 24 23 22 23 23 23 24 24 24 26 29 29 30 30 30 30 30 30 30 30 30 30 29 27 26 25 25 26 28 30 31 32 34 34 34 34 32 31 32 34 37 40 41 41 42 43 43 43 44 43 43 42 42 42 41 40 40 41
22 23 23 22 23 24 24 22 22 24 24 24 24 25 28 29 29 29 30 30 30 30 30 30 29 29 29 28 27 25 23 23 24 26 27 28 30 31 33 35 35 33 33 33 34 35 36 37 37 37 38 39 41 44 45 43 43 42 41 39 39 41 42
23 23 23 23 23 24 24 23 22 23 24 24 24 25 28 29 30 30 30 29 29 29 29 29 29 29 29 29 28 27 27 26 26 27 29 29 29 30 31 34 34 33 34 34 34 34 35 36 36 35 35 35 36 39 41 42 43 44 41 39 40 43 43
25 25 24 24 24 25 26 25 24 24 25 25 25 26 28 30 30 31 30 30 30 29 29 29 29 29 29 30 29 29 28 27 26 28 30 31 33 34 36 36 34 33 34 34 34 34 35 35 35 34 35 36 35 35 36 39 43 43 40 41 43 44 41
27 26 25 25 25 25 25 26 25 24 25 25 25 25 27 29 31 31 31 31 31 30 29 29 29 28 28 29 29 29 29 28 26 27 28 29 31 34 37 36 34 34 35 35 35 36 36 36 36 34 34 35 37 37 36 39 41 40 39 42 44 44 40
27 27 26 24 24 24 24 25 25 24 24 24 24 25 26 28 29 30 31 31 31 31 30 29 28 28 28 28 29 29 29 29 28 27 27 28 29 32 35 33 31 32 34 34 35 36 37 37 37 34 32 32 34 36 37 40 42 42 41 42 43 43 41
27 27 27 25 25 25 24 24 25 25 24 24 24 24 25 26 27 28 29 31 31 31 31 30 29 28 28 28 28 28 29 29 28 28 29 30 30 32 33 32 31 32 33 34 35 36 37 37 37 35 34 33 33 34 35 37 41 43 44 44 44 43 42
27 28 28 27 25 25 24 24 24 25 25 24 24 24 24 25 26 26 27 30 31 31 31 30 29 29 28 28 28 29 28 29 29 28 30 31 31 31 31 30 31 32 33 34 35 36 37 37 37 36 36 34 33 33 33 34 37 40 44 45 45 44 43
28 29 30 29 27 26 25 24 24 25 25 25 24 24 24 25 25 25 26 28 30 31 30 30 29 29 29 28 28 28 28 28 28 28 29 30 30 30 30 29 30 30 32 34 34 35 36 37 37 37 36 35 33 33 32 32 33 35 40 43 44 45 44
29 30 31 31 30 28 27 26 26 26 26 25 25 25 26 26 25 25 25 27 29 29 29 29 29 29 29 29 28 27 27 27 27 27 28 28 28 28 28 28 29 29 29 31 33 34 36 36 36 36 36 35 33 31 30 30 30 31 35 39 41 42 42
29 30 30 31 31 30 28 27 26 26 26 25 25 26 26 26 26 25 25 26 28 28 28 28 29 29 29 29 28 27 27 27 25 25 26 27 27 27 26 26 26 27 28 30 33 34 35 36 36 36 35 34 32 30 29 29 29 29 31 34 37 38 39
29 30 30 30 30 30 29 28 27 26 25 25 26 27 27 26 26 25 25 26 27 27 28 28 28 29 29 29 28 27 27 26 25 24 25 26 26 26 25 23 23 24 27 30 32 33 34 35 34 34 33 32 30 30 29 28 28 28 28 30 33 36 37
29 29 29 30 30 30 30 29 28 27 26 26 27 28 27 27 27 27 27 27 27 27 28 28 29 29 28 28 28 27 26 26 25 25 25 25 25 24 23 21 21 22 25 27 29 30 31 32 31 30 30 30 29 29 27 26 26 27 27 27 29 33 36
29 29 28 29 29 30 30 30 29 28 28 28 28 28 29 29 29 29 28 29 29 29 29 29 30 30 29 29 28 28 27 26 25 25 25 24 23 22 21 21 20 20 22 24 26 27 27 27 27 28 28 28 28 27 25 23 23 24 24 24 25 29 33
29 29 28 28 28 29 30 31 30 28 28 28 28 28 29 29 29 29 29 29 29 29 30 31 31 31 30 29 29 28 28 26 26 25 25 24 22 21 20 20 20 20 20 20 22 23 24 23 24 26 26 26 27 26 23 22 21 21 21 21 23 26 29
28 28 27 28 28 27 28 30 30 29 28 28 28 28 28 28 28 28 28 28 27 28 30 31 31 32 30 29 29 29 28 27 26 26 26 24 22 21 19 19 19 19 19 19 19 20 21 22 23 25 25 25 26 24 21 20 19 19 19 20 22 24 25
26 26 25 26 27 27 27 28 28 28 28 28 28 27 28 28 28 28 27 27 26 27 29 30 31 32 31 29 29 29 28 27 26 26 26 25 24 21 20 19 19 18 18 17 17 18 20 21 23 25 25 24 24 22 20 19 18 19 20 21 22 23 23
25 25 25 24 25 26 27 27 27 27 27 27 27 27 27 28 28 27 26 25 25 27 29 29 30 31 30 29 29 28 27 26 26 25 25 25 24 23 21 19 19 19 18 17 16 16 17 18 20 21 21 21 21 21 20 20 19 20 21 21 22 23 23
24 24 24 24 24 24 26 26 26 26 26 26 26 27 27 27 27 26 25 25 25 27 28 28 29 30 29 29 28 28 27 25 25 24 24 23 23 23 22 20 19 20 20 19 17 16 16 16 16 17 17 17 18 18 19 19 19 20 21 22 24 24 24
25 23 23 23 24 24 24 25 25 25 25 25 26 27 27 27 27 26 24 24 25 26 28 28 29 29 29 28 28 27 26 26 24 24 23 23 23 22 22 21 20 20 21 20 19 18 18 18 18 17 17 17 17 18 19 20 20 21 22 24 25 25 25
27 24 23 23 24 24 23 23 24 25 24 25 25 26 25 26 26 26 25 24 24 26 27 28 28 29 28 28 27 26 26 25 25 24 23 23 22 22 21 21 20 20 20 20 20 20 20 20 21 21 21 22 22 23 23 24 24 25 25 26 26 26 27
30 27 24 23 23 23 23 23 23 24 24 24 24 24 24 25 26 26 26 26 25 26 26 27 27 28 28 27 27 26 25 25 25 24 23 22 22 22 21 21 20 20 20 20 20 20 20 20 20 22 23 24 25 26 26 27 27 26 26 26 26 26 27
Wind_Direction
275 276 276 277 276 275 275 274 273 271 268 265 264 264 263 264 264 265 269 271 271 271 271 271 271 270 271 271 271 270 270 270 269 269 269 267 266 265 261 258 254 254 264 269 268 267 267 266 265 264 263 263 263 262 260 259 259 259 259 258 257 256 255
285 285 284 282 280 279 279 279 279 277 275 274 271 269 267 265 264 264 266 267 268 268 269 270 270 270 271 271 270 270 271 271 271 271 270 269 267 266 264 260 257 257 261 268 269 268 268 268 266 265 265 264 263 262 260 260 261 260 259 258 257 256 255
294 294 293 291 288 287 286 285 284 283 281 280 278 276 274 271 269 267 266 265 264 265 265 265 266 267 269 271 270 270 271 272 272 272 271 271 269 268 267 263 261 259 260 266 269 269 268 268 267 267 267 266 265 263 260 260 260 260 259 258 257 256 255
291 290 289 288 287 286 285 283 283 282 281 280 279 278 276 274 273 271 270 268 267 265 263 263 264 265 268 269 268 269 271 271 272 272 272 272 271 270 269 267 264 263 262 265 269 270 268 268 269 269 268 267 265 262 260 259 259 259 259 258 257 256 255
286 285 284 284 283 283 283 282 282 281 280 279 278 277 276 275 274 273 272 272 271 269 267 266 266 266 266 267 267 268 270 271 271 273 273 272 273 272 272 270 268 265 265 265 267 270 270 269 269 268 268 266 263 261 259 258 258 257 257 258 257 256 255
289 289 289 288 287 287 286 285 285 284 283 281 280 279 279 278 277 275 274 273 273 272 271 270 269 269 268 267 267 267 269 271 271 271 272 272 273 274 274 272 270 268 266 265 266 269 270 269 268 268 268 266 263 261 259 258 257 256 256 256 256 255 253
294 293 292 291 290 289 288 288 286 285 285 284 284 283 282 281 279 278 277 275 274 273 272 271 270 270 269 268 268 268 268 269 270 270 270 270 272 274 273 273 271 269 268 266 267 269 269 269 268 268 268 267 265 262 259 256 255 254 253 252 253 253 252
298 297 296 295 293 292 291 290 289 288 286 285 283 282 280 279 279 278 278 277 277 275 274 274 272 271 271 270 269 268 268 268 268 268 268 268 270 271 271 271 271 270 268 267 266 267 268 268 268 267 267 265 263 259 257 254 252 253 253 252 252 253 253
302 301 300 299 298 298 297 296 295 293 291 288 286 283 281 279 278 278 277 277 277 276 276 276 275 275 274 273 272 271 270 269 267 267 266 266 267 267 267 268 269 268 268 266 264 265 266 266 265 265 263 262 262 260 260 258 256 255 256 255 254 254 254
303 303 301 300 299 298 299 299 298 296 295 293 291 289 286 284 282 280 279 278 278 277 277 277 277 277 277 277 276 275 274 272 270 268 266 266 265 265 264 265 266 266 266 264 263 263 264 263 263 264 262 261 264 265 264 262 258 257 257 255 255 255 253
307 305 303 303 302 301 300 300 299 299 298 296 294 292 291 290 288 285 283 283 282 281 281 280 280 280 280 280 280 280 279 277 275 273 271 269 267 265 264 264 265 265 265 262 261 262 262 261 262 264 262 262 264 265 264 263 261 258 256 253 252 253 253
307 306 305 304 304 303 303 302 301 300 300 299 297 296 295 293 291 289 288 288 287 287 286 285 284 284 284 285 286 286 285 284 282 279 277 274 272 269 265 263 263 264 264 262 260 261 261 260 261 263 263 261 262 262 263 264 262 259 256 253 251 252 253
303 303 303 303 303 303 303 304 303 302 301 300 299 299 297 294 292 292 293 293 293 293 292 291 289 287 285 285 285 287 288 288 287 285 282 280 277 274 270 267 264 263 264 263 262 260 261 261 261 262 263 263 262 261 262 262 260 259 257 254 252 253 254
302 302 302 302 301 301 302 303 303 302 301 299 298 298 294 292 292 293 295 296 297 297 297 296 294 292 289 286 282 281 282 284 287 287 286 284 280 277 275 272 269 266 265 265 264 262 263 264 262 262 263 264 263 261 261 260 260 260 259 258 259 261 261
303 302 302 302 302 302 302 304 303 302 300 299 298 296 292 291 292 293 294 295 297 298 298 298 298 297 295 293 289 285 282 281 282 283 283 282 280 279 278 276 274 272 269 267 265 264 266 268 267 265 265 265 263 262 261 261 261 263 264 264 265 263 260
304 304 304 304 304 303 303 304 303 300 299 298 297 294 291 291 291 292 292 293 295 296 296 297 298 298 298 295 291 288 284 279 276 275 276 279 281 282 281 279 277 277 275 271 269 268 267 268 269 269 268 267 265 263 262 261 260 259 259 258 257 256 254
306 307 307 307 306 305 304 304 303 300 298 298 297 294 292 291 292 291 291 292 292 293 293 295 296 297 297 295 291 288 284 279 274 271 270 272 275 278 279 279 280 279 277 274 271 269 267 266 267 268 268 267 265 263 262 259 255 253 251 249 249 250 251
309 309 309 309 308 307 306 305 304 302 299 298 297 295 293 293 293 293 292 292 292 292 293 294 295 295 296 296 296 294 292 287 281 276 272 271 273 274 274 276 280 281 280 278 275 271 268 266 265 263 263 263 260 257 255 253 253 253 248 245 246 249 249
309 308 308 307 306 305 304 303 302 300 298 297 296 294 293 292 292 292 293 293 292 292 292 292 293 294 295 296 298 298 297 296 292 286 280 277 276 276 276 277 279 279 279 279 277 275 272 270 267 264 262 261 260 257 251 249 252 253 248 245 247 248 246
306 305 305 305 304 303 302 301 300 298 297 296 295 293 291 291 291 292 293 293 292 292 292 291 291 292 294 296 297 298 299 299 298 294 289 282 277 276 277 279 280 280 279 279 277 276 274 272 270 267 264 262 261 260 255 250 249 250 248 247 248 247 244
305 304 304 304 303 302 301 300 299 298 298 297 295 294 292 291 292 293 294 294 294 294 294 295 295 294 295 296 297 298 299 300 299 297 292 289 285 283 282 281 279 277 277 276 275 274 274 273 271 269 266 263 262 262 260 254 250 249 248 247 247 247 245
306 305 304 304 304 303 302 301 299 298 298 297 296 295 294 293 294 295 295 295 295 296 296 298 298 297 297 297 297 298 299 300 300 298 295 295 294 292 290 285 278 275 273 273 273 273 272 271 270 268 266 265 264 263 263 260 255 251 249 249 248 248 248
307 306 305 305 305 304 305 303 301 300 299 299 299 297 296 295 295 294 294 294 294 295 297 298 299 298 297 296 296 297 298 299 300 299 298 298 297 295 293 288 282 276 271 271 272 273 271 269 268 268 267 267 266 265 265 266 262 256 252 250 250 250 251
307 306 305 304 304 305 305 304 301 300 300 300 300 298 297 296 294 293 293 292 293 294 296 297 298 298 297 296 297 298 298 298 298 298 298 298 297 296 292 288 283 278 273 271 271 270 270 269 268 268 269 270 270 270 271 270 268 262 256 253 252 252 252
305 304 304 304 304 304 304 302 300 300 300 300 300 298 297 296 295 294 293 293 293 295 296 296 296 296 296 296 297 296 295 295 296 298 298 299 299 297 293 287 282 278 274 271 269 268 269 269 270 271 273 275 276 275 273 270 267 262 257 252 251 250 250
305 304 303 304 304 303 303 302 302 302 302 301 300 298 297 297 297 297 297 296 296 297 296 295 295 295 296 297 297 296 296 295 297 298 299 299 299 297 292 288 285 281 275 271 270 270 270 271 273 276 277 277 275 272 270 269 267 263 259 253 249 248 247
304 304 304 304 304 303 303 304 305 306 305 303 301 300 300 301 302 303 303 301 300 300 299 297 297 297 298 298 299 299 298 296 296 296 297 298 299 297 291 286 285 286 282 277 275 274 275 276 278 278 276 274 272 270 270 270 267 265 262 257 253 249 248
302 303 304 304 304 304 304 305 306 307 307 305 304 304 305 305 305 306 305 304 304 304 302 300 299 299 299 299 300 299 298 295 294 294 295 297 299 296 288 281 279 280 281 281 281 280 280 280 279 276 275 273 271 270 270 269 266 265 263 261 257 252 250
302 304 305 303 303 304 304 304 305 306 305 303 303 303 303 303 303 303 302 303 304 304 301 299 299 299 301 302 302 301 299 298 297 295 294 296 298 294 286 280 278 277 278 282 284 285 285 283 280 276 275 273 270 269 270 268 266 264 264 262 258 255 253
301 303 303 301 300 301 300 300 302 303 301 300 300 300 299 299 299 298 298 300 301 299 296 296 297 299 302 303 303 302 302 302 300 297 296 296 296 293 287 281 279 280 280 280 280 281 283 283 280 277 275 271 269 270 271 269 266 265 265 263 260 258 257
297 297 298 297 298 298 297 297 298 299 298 298 298 298 297 297 296 296 297 299 298 295 292 293 296 298 301 302 302 302 303 303 300 299 298 297 296 294 289 282 279 280 282 281 277 274 273 273 273 273 273 271 272 273 272 269 268 267 265 264 262 261 261
295 295 295 294 294 295 296 297 297 297 297 297 297 297 296 295 295 296 297 297 294 290 290 292 294 296 298 300 300 301 301 300 299 298 298 297 295 294 292 286 280 277 278 278 276 271 267 266 266 266 267 267 270 271 270 269 268 268 267 266 264 262 262
295 296 295 295 294 295 296 297 297 296 295 295 296 295 295 295 295 295 295 294 292 289 290 291 292 293 295 297 298 299 299 297 296 295 295 294 293 293 292 290 285 279 275 273 271 267 264 262 261 261 261 262 263 264 264 263 265 266 266 265 263 261 261
297 298 298 297 296 296 296 296 295 294 294 294 294 294 295 295 294 294 293 292 290 289 290 291 291 292 294 295 295 296 297 295 295 294 294 292 291 289 289 288 286 281 277 273 270 265 260 258 256 256 256 256 256 258 259 259 260 262 261 260 260 260 260
300 301 300 298 297 298 298 296 294 293 293 293 293 293 294 294 293 293 293 290 288 287 288 289 290 291 292 293 294 294 295 295 294 293 293 292 291 289 287 285 282 280 278 276 272 268 263 259 256 256 256 256 256 258 258 259 259 259 258 258 257 257 257
301 302 300 297 298 300 298 295 293 293 292 292 292 293 294 293 292 293 292 291 290 289 288 289 289 290 291 292 292 293 293 293 292 292 292 292 292 291 288 285 281 277 275 274 272 271 268 263 259 257 256 256 257 257 258 258 259 258 256 255 254 254 254